SCP
0 0 0 0 0 0 0 0 0 0 0 0 0 0 0 0 -0 -0 -0 -0 -0 -0 -0 -0 -0 -0 -0 -0 -0 -0 -0 -0
0 0 0 0 0 0 0 0 0 0 0 0 1 0 0 -0 -0 -0 -0 -0 -0 -0 -0 -0 -0 -0 -0 -0 -0 -0 -0 -0
0 0 0 0 0 0 0 0 0 0 0 0 1 0 0 -0 -0 -0 -0 -0 -0 -0 -0 -0 -0 -0 -0 -0 -0 -0 -0 -0
0 0 0 0 0 0 0 0 0 0 0 0 0 0 -0 0 -0 -0 -0 -0 -0 -0 -0 -0 -0 -0 -0 -0 -0 -0 -0 -0
0 0 0 0 0 0 0 0 0 0 0 0 0 -0 0 0 0 0 -0 -0 -0 0 -0 -0 -0 -0 -0 -0 -0 -0 -0 -0
0 0 0 0 0 0 0 0 1 1 0 1 0 0 0 0 0 0 0 0 -0 -0 -0 -0 -0 -0 -0 -0 -0 -0 -0 0
0 0 0 0 0 0 0 1 1 1 0 0 0 0 0 0 0 0 0 0 -0 -0 -0 -0 -0 -0 -0 -0 0 0 0 0
0 0 0 0 0 0 0 1 2 1 1 0 0 0 0 0 0 0 0 0 0 0 0 0 0 0 0 0 0 0 0 0
0 0 0 0 0 0 0 1 1 1 1 1 0 0 0 0 0 0 0 0 0 0 0 0 0 0 0 0 0 0 0 0
0 0 0 0 0 0 0 0 0 1 1 1 0 0 0 0 0 0 0 0 0 0 0 0 0 0 0 0 0 0 0 0
0 0 0 0 0 0 0 0 1 1 2 0 0 0 0 0 0 0 -0 0 0 0 0 0 0 0 0 0 0 0 0 0
0 0 0 0 0 0 0 0 2 1 1 1 1 0 0 0 0 0 -0 -0 0 0 0 0 0 0 0 0 0 0 0 0
0 0 0 0 0 0 0 0 1 1 1 1 2 1 0 0 0 0 0 0 0 0 0 -0 0 0 0 0 0 0 0 0
0 0 0 0 0 0 0 0 0 0 0 0 0 1 1 1 0 0 0 0 0 0 0 0 0 0 0 0 0 0 0 0
0 0 0 0 0 0 0 0 0 0 0 0 0 0 0 0 0 0 0 0 0 0 0 0 0 0 0 0 0 1 1 0
0 0 0 0 0 0 0 0 0 0 0 0 0 0 0 0 0 0 0 0 0 0 0 0 0 0 1 1 2 2 1 1
0 0 0 0 0 0 0 0 0 0 0 0 0 0 0 0 0 0 0 0 0 0 0 0 0 0 1 1 1 1 1 2
0 0 0 0 0 0 0 0 0 0 0 0 0 0 0 0 0 1 1 1 1 1 0 0 0 0 0 1 1 1 0 0
0 0 0 0 0 0 0 0 0 0 0 0 0 0 0 0 0 0 1 1 1 1 0 0 0 0 0 1 1 0 0 0
0 0 0 0 0 0 0 0 0 0 0 0 0 0 0 0 0 1 1 1 1 1 1 1 1 1 2 1 0 0 0 -0
Wind_Speed_500mb
6 6 18 7 9 9 12 15 6 8 9 6 8 12 30 36 52 66 63 58 53 45 37 32 26 23 23 27 30 32 32 33
10 23 15 5 14 7 16 6 11 11 14 14 6 8 18 50 56 62 61 58 51 45 38 33 26 22 20 22 26 28 30 31
12 27 7 11 15 17 13 6 7 15 15 9 10 15 30 53 60 60 62 58 52 45 38 34 26 22 19 19 20 23 25 25
27 25 19 11 19 14 6 7 7 13 13 11 10 23 47 53 60 57 59 57 51 46 40 36 31 26 22 20 20 21 22 22
18 31 21 12 6 12 2 6 4 2 10 18 19 30 44 58 60 62 57 56 52 47 42 37 34 31 27 24 22 23 25 26
21 28 41 12 6 11 5 2 2 9 8 12 31 33 45 53 60 61 56 53 52 49 44 40 36 35 33 29 27 24 23 22
35 22 20 12 14 7 5 6 3 9 8 13 36 39 52 54 63 62 59 56 53 49 43 39 37 36 34 31 28 25 24 22
13 10 12 12 13 17 8 15 5 19 24 35 40 44 54 56 61 57 58 56 52 46 42 41 39 38 37 35 32 29 27 24
14 12 8 9 12 7 14 14 19 28 48 48 52 53 52 55 54 53 54 53 50 46 43 40 37 36 36 36 34 32 28 25
10 9 9 4 2 9 10 2 11 29 42 52 54 54 52 53 49 52 53 51 49 48 45 40 37 35 32 33 31 29 26 26
17 2 7 2 6 6 14 13 25 38 31 39 46 48 48 48 48 48 47 45 44 44 42 40 41 37 35 29 30 27 26 24
14 20 2 5 6 7 12 29 33 39 35 34 37 44 45 47 47 41 41 42 43 41 38 39 35 32 31 26 25 23 24 21
19 12 10 8 6 12 19 33 39 37 37 35 35 36 33 35 37 32 37 41 38 34 41 38 38 33 31 27 29 26 21 16
31 25 9 19 44 19 22 29 35 37 34 36 38 35 33 30 34 31 33 32 31 32 33 36 37 33 31 30 28 24 17 18
26 35 15 21 18 22 23 27 26 32 34 32 28 23 22 27 30 33 35 37 34 28 30 32 35 31 29 28 28 23 23 20
36 22 34 26 13 18 27 24 25 23 21 25 30 24 18 18 23 34 45 45 41 35 30 27 26 27 25 18 19 21 23 16
27 13 24 27 22 13 26 22 25 21 22 21 22 19 20 18 16 22 31 40 40 32 30 28 28 29 32 34 30 23 26 31
22 20 21 19 27 10 18 27 32 30 28 28 23 19 19 20 25 24 31 35 35 29 25 28 31 32 29 28 34 35 33 33
25 19 7 21 19 17 14 17 22 25 22 22 24 20 21 23 27 31 34 33 29 24 24 26 21 19 18 15 14 10 8 12
38 25 23 16 24 19 23 24 22 33 26 30 28 27 23 25 28 29 31 31 27 26 26 21 15 11 8 7 6 7 14 17
Wind_Direction_500mb
229 205 214 217 162 226 292 307 232 128 73 95 54 75 139 157 155 165 165 164 161 161 159 153 150 144 138 147 152 152 153 153
229 209 222 270 152 280 320 78 173 148 113 90 73 143 161 154 157 165 165 165 163 163 161 159 160 151 140 143 152 154 158 158
223 230 243 250 256 291 311 297 285 178 123 83 81 145 157 156 162 168 167 166 165 166 166 166 171 166 157 147 148 158 164 169
215 221 232 239 258 268 287 331 317 171 109 105 125 154 153 161 164 170 169 168 169 169 172 174 179 180 178 167 157 159 169 181
211 218 236 218 231 252 244 306 53 40 127 132 154 159 160 164 167 171 174 173 173 174 177 182 185 187 190 187 179 175 176 187
208 205 222 179 234 264 307 159 151 159 184 168 168 159 158 163 167 171 176 180 180 181 183 186 191 195 197 196 196 194 190 193
204 188 198 169 196 171 357 180 125 192 162 171 160 160 162 164 165 171 178 183 187 189 189 192 199 202 204 205 207 209 210 209
191 189 163 165 195 164 184 154 151 122 140 145 155 159 165 165 168 176 184 188 193 194 196 200 204 205 207 209 215 219 221 222
211 176 167 151 162 179 173 204 213 186 153 154 155 161 168 172 178 181 188 191 193 197 200 204 209 210 212 214 219 223 226 228
173 167 138 145 106 159 204 229 216 175 156 155 159 166 171 176 179 183 189 193 196 198 201 204 209 212 216 220 224 229 235 239
203 111 118 200 75 178 135 134 139 153 160 166 167 169 175 177 177 182 190 195 199 204 205 209 211 210 213 221 225 231 237 245
190 209 146 143 73 256 137 145 147 159 171 175 174 175 176 179 179 186 192 198 203 206 210 218 223 219 220 227 234 234 240 248
192 180 196 145 209 217 143 154 154 165 172 177 176 180 193 194 195 199 203 204 209 216 214 220 225 224 226 227 235 236 247 269
190 184 191 190 203 200 161 149 165 169 177 184 193 197 201 202 205 203 203 203 202 219 222 228 229 231 236 241 251 249 246 262
185 202 168 201 190 207 173 159 163 165 171 177 181 197 211 218 218 216 209 208 210 221 225 231 232 235 244 251 253 247 260 281
197 184 202 189 189 185 176 176 196 187 189 186 193 197 224 240 225 218 218 223 229 236 236 237 233 230 241 256 263 245 250 277
198 187 183 194 187 205 173 178 183 194 193 211 208 203 206 218 230 205 207 216 225 226 235 239 236 244 246 260 250 247 269 281
179 160 188 175 187 205 195 191 194 193 196 208 216 203 208 212 221 220 209 208 214 219 220 232 234 255 252 256 261 277 293 296
166 163 104 153 190 201 222 238 215 202 216 223 223 212 215 230 224 229 226 218 218 215 225 234 245 256 257 250 244 260 311 326
194 177 192 214 209 213 194 204 226 221 224 226 229 237 229 234 229 232 229 224 225 226 230 235 235 233 223 215 239 62 38 13
Wind_Speed_850mb
6 6 18 7 9 9 12 15 6 8 9 6 8 12 30 36 52 66 63 58 53 45 37 32 26 23 23 27 30 32 32 33
10 23 15 5 14 7 16 6 11 11 14 14 6 8 18 50 56 62 61 58 51 45 38 33 26 22 20 22 26 28 30 31
12 27 7 11 15 17 13 6 7 15 15 9 10 15 30 53 60 60 62 58 52 45 38 34 26 22 19 19 20 23 25 25
27 25 19 11 19 14 6 7 7 13 13 11 10 23 47 53 60 57 59 57 51 46 40 36 31 26 22 20 20 21 22 22
18 31 21 12 6 12 2 6 4 2 10 18 19 30 44 58 60 62 57 56 52 47 42 37 34 31 27 24 22 23 25 26
21 28 41 12 6 11 5 2 2 9 8 12 31 33 45 53 60 61 56 53 52 49 44 40 36 35 33 29 27 24 23 22
35 22 20 12 14 7 5 6 3 9 8 13 36 39 52 54 63 62 59 56 53 49 43 39 37 36 34 31 28 25 24 22
13 10 12 12 13 17 8 15 5 19 24 35 40 44 54 56 61 57 58 56 52 46 42 41 39 38 37 35 32 29 27 24
14 12 8 9 12 7 14 14 19 28 48 48 52 53 52 55 54 53 54 53 50 46 43 40 37 36 36 36 34 32 28 25
10 9 9 4 2 9 10 2 11 29 42 52 54 54 52 53 49 52 53 51 49 48 45 40 37 35 32 33 31 29 26 26
17 2 7 2 6 6 14 13 25 38 31 39 46 48 48 48 48 48 47 45 44 44 42 40 41 37 35 29 30 27 26 24
14 20 2 5 6 7 12 29 33 39 35 34 37 44 45 47 47 41 41 42 43 41 38 39 35 32 31 26 25 23 24 21
19 12 10 8 6 12 19 33 39 37 37 35 35 36 33 35 37 32 37 41 38 34 41 38 38 33 31 27 29 26 21 16
31 25 9 19 44 19 22 29 35 37 34 36 38 35 33 30 34 31 33 32 31 32 33 36 37 33 31 30 28 24 17 18
26 35 15 21 18 22 23 27 26 32 34 32 28 23 22 27 30 33 35 37 34 28 30 32 35 31 29 28 28 23 23 20
36 22 34 26 13 18 27 24 25 23 21 25 30 24 18 18 23 34 45 45 41 35 30 27 26 27 25 18 19 21 23 16
27 13 24 27 22 13 26 22 25 21 22 21 22 19 20 18 16 22 31 40 40 32 30 28 28 29 32 34 30 23 26 31
22 20 21 19 27 10 18 27 32 30 28 28 23 19 19 20 25 24 31 35 35 29 25 28 31 32 29 28 34 35 33 33
25 19 7 21 19 17 14 17 22 25 22 22 24 20 21 23 27 31 34 33 29 24 24 26 21 19 18 15 14 10 8 12
38 25 23 16 24 19 23 24 22 33 26 30 28 27 23 25 28 29 31 31 27 26 26 21 15 11 8 7 6 7 14 17
Wind_Direction_850mb
229 205 214 217 162 226 292 307 232 128 73 95 54 75 139 157 155 165 165 164 161 161 159 153 150 144 138 147 152 152 153 153
229 209 222 270 152 280 320 78 173 148 113 90 73 143 161 154 157 165 165 165 163 163 161 159 160 151 140 143 152 154 158 158
223 230 243 250 256 291 311 297 285 178 123 83 81 145 157 156 162 168 167 166 165 166 166 166 171 166 157 147 148 158 164 169
215 221 232 239 258 268 287 331 317 171 109 105 125 154 153 161 164 170 169 168 169 169 172 174 179 180 178 167 157 159 169 181
211 218 236 218 231 252 244 306 53 40 127 132 154 159 160 164 167 171 174 173 173 174 177 182 185 187 190 187 179 175 176 187
208 205 222 179 234 264 307 159 151 159 184 168 168 159 158 163 167 171 176 180 180 181 183 186 191 195 197 196 196 194 190 193
204 188 198 169 196 171 357 180 125 192 162 171 160 160 162 164 165 171 178 183 187 189 189 192 199 202 204 205 207 209 210 209
191 189 163 165 195 164 184 154 151 122 140 145 155 159 165 165 168 176 184 188 193 194 196 200 204 205 207 209 215 219 221 222
211 176 167 151 162 179 173 204 213 186 153 154 155 161 168 172 178 181 188 191 193 197 200 204 209 210 212 214 219 223 226 228
173 167 138 145 106 159 204 229 216 175 156 155 159 166 171 176 179 183 189 193 196 198 201 204 209 212 216 220 224 229 235 239
203 111 118 200 75 178 135 134 139 153 160 166 167 169 175 177 177 182 190 195 199 204 205 209 211 210 213 221 225 231 237 245
190 209 146 143 73 256 137 145 147 159 171 175 174 175 176 179 179 186 192 198 203 206 210 218 223 219 220 227 234 234 240 248
192 180 196 145 209 217 143 154 154 165 172 177 176 180 193 194 195 199 203 204 209 216 214 220 225 224 226 227 235 236 247 269
190 184 191 190 203 200 161 149 165 169 177 184 193 197 201 202 205 203 203 203 202 219 222 228 229 231 236 241 251 249 246 262
185 202 168 201 190 207 173 159 163 165 171 177 181 197 211 218 218 216 209 208 210 221 225 231 232 235 244 251 253 247 260 281
197 184 202 189 189 185 176 176 196 187 189 186 193 197 224 240 225 218 218 223 229 236 236 237 233 230 241 256 263 245 250 277
198 187 183 194 187 205 173 178 183 194 193 211 208 203 206 218 230 205 207 216 225 226 235 239 236 244 246 260 250 247 269 281
179 160 188 175 187 205 195 191 194 193 196 208 216 203 208 212 221 220 209 208 214 219 220 232 234 255 252 256 261 277 293 296
166 163 104 153 190 201 222 238 215 202 216 223 223 212 215 230 224 229 226 218 218 215 225 234 245 256 257 250 244 260 311 326
194 177 192 214 209 213 194 204 226 221 224 226 229 237 229 234 229 232 229 224 225 226 230 235 235 233 223 215 239 62 38 13